Location: Sewell
(39.7660°N, 75.1450°W)
Time: 15:24:23
(UTC-05:00)

ISS - Visible Passes

Search period start: 22 January 2018 00:00
Search period end: 01 February 2018 00:00
Orbit: 402 x 407 km, 51.6° (Epoch: 23 January)

Date Brightness Start Highest point End Pass type
(mag) Time Alt. Az. Time Alt. Az. Time Alt. Az.
22 Jan -0.8 19:20:43 10° SSW 19:20:48 10° SSW 19:20:48 10° SSW visible
23 Jan -1.9 18:29:22 10° S 18:31:12 17° SE 18:31:12 17° SE visible
24 Jan -2.3 19:12:12 10° SW 19:14:12 34° SW 19:14:12 34° SW visible
25 Jan -3.3 18:20:07 10° SSW 18:23:12 42° SE 18:24:24 28° E visible
25 Jan -0.2 19:57:01 10° W 19:57:05 10° W 19:57:05 10° W visible
26 Jan -2.7 19:04:15 10° WSW 19:07:12 39° NW 19:07:12 39° NW visible
27 Jan -3.7 18:11:43 10° WSW 18:14:58 74° NW 18:17:14 18° NE visible
27 Jan -0.4 19:49:46 10° WNW 19:49:54 11° WNW 19:49:54 11° WNW visible
28 Jan -1.9 18:56:42 10° WNW 18:59:19 22° NNW 18:59:51 21° N visible
29 Jan -2.5 18:03:48 10° W 18:06:48 33° NNW 18:09:44 10° NE visible
30 Jan -1.4 18:49:26 10° NW 18:51:22 15° NNW 18:52:14 14° N visible
31 Jan -1.7 17:56:16 10° WNW 17:58:44 19° NNW 18:01:12 10° NNE visible
